Regional Weather Roundup
Issued by NWS Bismarck, ND

Home | Current Version | Previous Version | Text Only | Print | Product List | Glossary On
Versions: 1 2 3 4 5 6 7 8 9 10 11 12 13 14 15 16 17 18 19 20 21 22 23 24 25 26 27 28 29 30 31 32 33 34 35 36 37 38 39 40 41 42 43 44 45 46 47 48 49 50
000
ASUS43 KBIS 301010
RWRBIS

NWR BROADCAST TEXT
NATIONAL WEATHER SERVICE BISMARCK ND
500 AM CDT SUN AUG 30 2015

NOTE: "FAIR" INDICATES FEW OR NO CLOUDS BELOW 12,000 FEET WITH NO
SIGNIFICANT WEATHER AND/OR OBSTRUCTIONS TO VISIBILITY.


CITY           SKY/WX    TMP DP  RH WIND       PRES   REMARKS
WILLISTON      CLOUDY    65  56  72 CALM      29.66F HAZE
MINOT          PTCLDY    73  57  57 SE5       29.69F
MINOT AFB      PTCLDY    66  61  84 SE6       29.68F
BISMARCK       MOCLDY    64  61  90 E7        29.76F
DICKINSON      MOCLDY    65  51  60 S10       29.73F
GARRISON         N/A     64  59  83 E3        29.73F
HETTINGER ARPT MOCLDY    63  49  60 CALM      29.79F
JAMESTOWN      CLOUDY    66  65  96 S9        29.80S FOG
CROSBY         FAIR      70  54  56 S12       29.66F
HARVEY         FAIR      64  63  94 S6        29.74F
HAZEN          FAIR      72  54  53 E6        29.73F
LINTON         FAIR      64  64 100 SE14      29.79S
MANDAN         FAIR      64  59  82 SE7       29.77F
OAKES            N/A     64  64 100 S10       29.83S
RUGBY          FAIR      64  63  94 E7        29.73S
STANLEY        FAIR      66  57  72 SE5       29.72F
$$

CITY           SKY/WX    TMP DP  RH WIND       PRES   REMARKS
GRAND FORKS    CLEAR     66  65  96 S10       29.77F
GRAND FORKS AF CLEAR     66  66  99 S9        29.77S
DEVILS LAKE    MOCLDY    72  63  73 S6        29.75S
FARGO          PTCLDY    65  62  90 SE13      29.83S
CAVALIER       FAIR      66  64  94 E5        29.76S FOG
GRAFTON        FAIR      66  66 100 SE10      29.77S
GWINNER          N/A     66  66 100 S9        29.84S
LANGDON        FAIR      70  68  94 CALM      29.78R
ROLLA          PTSUNNY   63  63 100 S7        29.76S
WALHALLA       FAIR      66  66 100 MISG      29.75S
$$

CITY           SKY/WX    TMP DP  RH WIND       PRES   REMARKS
ABERDEEN       CLEAR     65  63  93 S9        29.85S
MOBRIDGE       MOCLDY    67  64  90 SE9       29.79S
BUFFALO          N/A     67  48  50 SE3       29.73F
RAPID CITY     PTCLDY    63  47  55 SE13      29.86F
GLASGOW        PTCLDY    69  46  43 MISG      29.66R HAZE
SIDNEY         CLOUDY    66  52  59 CALM      29.65F
WOLF POINT     MOCLDY    63  53  70 E6        29.64F HAZE
GLENDIVE       CLOUDY    75  46  35 S3        29.69S
MILES CITY     MOCLDY    72  44  36 S8        29.68S
BAKER          MOCLDY    64  49  57 E8        29.74F
$$

CITY           SKY/WX    TMP DP  RH WIND       PRES   REMARKS
BILLINGS       CLOUDY    78  44  29 SW21      29.80R
GREAT FALLS    MOCLDY    63  50  62 E8        29.81S HAZE
REGINA         CLOUDY    72  50  46 SE15      29.64F SMOKE
ESTEVAN        CLOUDY    66  55  68 VRB8      29.67S SMOKE
$$



USA.gov is the U.S. government's official web portal to all federal, state and local government web resources and services.